OSCAR 7 (AO-7) (7530 NORAD) Tracking and Keplerian Element Data

This shows tracking and keplerian element data for the satellite.

Feedback or suggestion? Click here.




ElementValue
Catalog7530
NameOSCAR 7 (AO-7)
Epoch Orbit10192
Epoch Day294.71238387
Epoch Year2020
RAAN263.8245
Inclination101.8179
Eccentricity0.0012394
Argument of Perigee121.6556
Mean Anonmoly51.5968
Mean Motion12.53645609
Decay Rate-4.3E-07
L11 07530U 74089B 20294.71238387 -.00000043 00000-0 15832-4 0 9990
L22 07530 101.8179 263.8245 0012394 121.6556 51.5968 12.53645609101927

Live tracking and technical data element details for OSCAR 7 (AO-7) (NORAD 7530). OSCAR 7 (AO-7) can be tracked NOW for your location showing map with azimuth and elevation plus other details from your city location.

Track the satellite on the map from your city or location and see movement details for azimuth, elevation, latitude, longitude, range, height, and movement on the map or in text.







IsCatalogInMostPopularTable: catalog: 7530, numindb: 1881
Update: records affected: 1



GetName: 7530 OSCAR 7 (AO-7)

Hit Count: updated at: Thu, 22 Oct 2020 04:36:24 GMT